H1 CPF 2 NER 2025 9 1 9 244 01 glonass138 H2 1805301 9138 43508 2025 9 1 0 0 0 2025 9 4 23 45 0 900 1 1 0 0 0 1 H9 10 0 60919 0.00000 0 -2878355.008 24610840.292 -6112411.495 10 0 60919 900.00000 0 -2802543.427 25196501.807 -2944379.248 10 0 60919 1800.00000 0 -2633472.703 25385149.277 280762.075 10 0 60919 2700.00000 0 -2426639.661 25165353.278 3500460.906 10 0 60919 3600.00000 0 -2238723.168 24539221.692 6652278.385 10 0 60919 4500.00000 0 -2124951.416 23522348.678 9675095.333 10 0 60919 5400.00000 0 -2136533.752 22143218.853 12510293.260 10 0 60919 6300.00000 0 -2318265.655 20442091.490 15102886.714 10 0 60919 7200.00000 0 -2706408.071 18469411.088 17402585.301 10 0 60919 8100.00000 0 -3326930.859 16283810.306 19364765.189 10 0 60919 9000.00000 0 -4194194.845 13949788.027 20951331.720 10 0 60919 9900.00000 0 -5310128.723 11535158.687 22131456.828 10 0 60919 10800.00000 0 -6663936.424 9108378.375 22882177.392 10 0 60919 11700.00000 0 -8232348.589 6735858.158 23188843.169 10 0 60919 12600.00000 0 -9980409.164 4479375.625 23045405.699 10 0 60919 13500.00000 0 -11862765.870 2393691.564 22454542.423 10 0 60919 14400.00000 0 -13825412.301 524470.223 21427613.158 10 0 60919 15300.00000 0 -15807810.425 -1093410.788 19984449.119 10 0 60919 16200.00000 0 -17745306.119 -2437091.030 18152977.725 10 0 60919 17100.00000 0 -19571737.834 -3496447.214 15968689.482 10 0 60919 18000.00000 0 -21222129.820 -4274272.866 13473956.344 10 0 60919 18900.00000 0 -22635357.390 -4785910.479 10717213.938 10 0 60919 19800.00000 0 -23756672.266 -5058352.033 7752022.907 10 0 60919 20700.00000 0 -24539981.449 -5128846.212 4636027.297 10 0 60919 21600.00000 0 -24949783.063 -5043071.728 1429830.304 10 0 60919 22500.00000 0 -24962676.812 -4852954.748 -1804190.389 10 0 60919 23400.00000 0 -24568384.526 -4614223.761 -5003103.875 10 0 60919 24300.00000 0 -23770237.020 -4383806.591 -8104659.179 10 0 60919 25200.00000 0 -22585106.150 -4217181.064 -11048505.279 10 0 60919 26100.00000 0 -21042784.608 -4165792.887 -13777373.116 10 0 60919 27000.00000 0 -19184839.486 -4274651.285 -16238195.739 10 0 60919 27900.00000 0 -17062987.991 -4580205.283 -18383144.124 10 0 60919 28800.00000 0 -14737063.817 -5108591.301 -20170558.133 10 0 60919 29700.00000 0 -12272659.817 -5874326.763 -21565754.529 10 0 60919 30600.00000 0 -9738545.933 -6879505.303 -22541696.679 10 0 60919 31500.00000 0 -7203970.446 -8113527.760 -23079513.457 10 0 60919 32400.00000 0 -4735957.045 -9553380.473 -23168858.054 10 0 60919 33300.00000 0 -2396709.907 -11164449.360 -22808100.524 10 0 60919 34200.00000 0 -241234.126 -12901835.751 -22004351.119 10 0 60919 35100.00000 0 1684730.601 -14712119.039 -20773314.616 10 0 60919 36000.00000 0 3346378.412 -16535492.637 -19138978.989 10 0 60919 36900.00000 0 4721039.970 -18308184.118 -17133144.775 10 0 60919 37800.00000 0 5798871.060 -19965058.697 -14794804.411 10 0 60919 38700.00000 0 6583000.199 -21442297.525 -12169383.536 10 0 60919 39600.00000 0 7089130.857 -22680039.095 -9307858.919 10 0 60919 40500.00000 0 7344616.643 -23624873.574 -6265769.898 10 0 60919 41400.00000 0 7387049.710 -24232085.919 -3102142.360 10 0 60919 42300.00000 0 7262422.943 -24467554.033 121654.035 10 0 60919 43200.00000 0 7022944.216 -24309222.590 3343093.315 10 0 60919 44100.00000 0 6724595.525 -23748090.783 6499702.470 10 0 60919 45000.00000 0 6424540.349 -22788672.555 9530269.123 10 0 60919 45900.00000 0 6178488.918 -21448909.823 12376024.374 10 0 60919 46800.00000 0 6038132.674 -19759541.988 14981778.086 10 0 60919 47700.00000 0 6048756.233 -17762957.635 17296984.879 10 0 60919 48600.00000 0 6247127.672 -15511575.758 19276720.566 10 0 60919 49500.00000 0 6659756.261 -13065823.314 20882550.548 10 0 60919 50400.00000 0 7301591.411 -10491792.538 22083273.774 10 0 60919 51300.00000 0 8175218.226 -7858674.622 22855528.235 10 0 60919 52200.00000 0 9270584.412 -5236075.494 23184246.551 10 0 60919 53100.00000 0 10565271.216 -2691324.346 23062952.874 10 0 60919 54000.00000 0 12025298.425 -286885.839 22493895.202 10 0 60919 54900.00000 0 13606431.251 1922017.330 21488010.126 10 0 60919 55800.00000 0 15255935.838 3889473.264 20064720.023 10 0 60919 56700.00000 0 16914711.280 5580555.605 18251565.791 10 0 60919 57600.00000 0 18519709.944 6972534.823 16083681.274 10 0 60919 58500.00000 0 20006545.410 8055575.845 13603118.624 10 0 60919 59400.00000 0 21312178.999 8832893.187 10858036.860 10 0 60919 60300.00000 0 22377572.004 9320357.488 7901768.700 10 0 60919 61200.00000 0 23150191.666 9545570.414 4791783.551 10 0 60919 62100.00000 0 23586264.666 9546447.536 1588566.782 10 0 60919 63000.00000 0 23652682.234 9369369.732 -1645562.512 10 0 60919 63900.00000 0 23328475.488 9066982.179 -4847671.540 10 0 60919 64800.00000 0 22605797.774 8695735.170 -7955446.967 10 0 60919 65700.00000 0 21490371.674 8313272.065 -10908416.138 10 0 60919 66600.00000 0 20001381.159 7975776.248 -13649131.544 10 0 60919 67500.00000 0 18170813.016 7735390.609 -16124294.539 10 0 60919 68400.00000 0 16042275.034 7637819.817 -18285795.826 10 0 60919 69300.00000 0 13669340.616 7720217.653 -20091652.037 10 0 60919 70200.00000 0 11113489.351 8009449.251 -21506820.209 10 0 60919 71100.00000 0 8441729.884 8520801.955 -22503874.602 10 0 60919 72000.00000 0 5724004.493 9257199.281 -23063533.263 10 0 60919 72900.00000 0 3030483.533 10208951.034 -23175024.846 10 0 60919 73800.00000 0 428862.080 11354050.027 -22836289.389 10 0 60919 74700.00000 0 -2018229.321 12659002.770 -22054009.925 10 0 60919 75600.00000 0 -4255593.107 14080159.202 -20843475.032 10 0 60919 76500.00000 0 -6237515.072 15565485.701 -19228275.481 10 0 60919 77400.00000 0 -7929412.858 17056707.082 -17239841.227 10 0 60919 78300.00000 0 -9309015.602 18491728.015 -14916827.862 10 0 60919 79200.00000 0 -10367027.342 19807232.580 -12304364.412 10 0 60919 80100.00000 0 -11107248.260 20941353.246 -9453176.970 10 0 60919 81000.00000 0 -11546150.423 21836297.602 -6418604.992 10 0 60919 81900.00000 0 -11711927.361 22440822.893 -3259529.126 10 0 60919 82800.00000 0 -11643058.727 22712454.633 -37231.240 10 0 60919 83700.00000 0 -11386451.491 22619356.299 3185791.358 10 0 60919 84600.00000 0 -10995236.736 22141771.501 6347034.670 10 0 60919 85500.00000 0 -10526315.462 21272978.003 9385196.312 10 0 60920 0.00000 0 -10037757.221 20019713.308 12241359.884 10 0 60920 900.00000 0 -9586161.172 18402052.788 14860134.146 10 0 60920 1800.00000 0 -9224091.499 16452746.528 17190721.385 10 0 60920 2700.00000 0 -8997694.362 14216039.588 19187899.774 10 0 60920 3600.00000 0 -8944597.437 11746025.560 20812897.237 10 0 60920 4500.00000 0 -9092180.290 9104600.383 22034141.887 10 0 60920 5400.00000 0 -9456288.707 6359100.582 22827874.625 10 0 60920 6300.00000 0 -10040447.491 3579722.938 23178612.327 10 0 60920 7200.00000 0 -10835605.623 836831.710 23079452.684 10 0 60920 8100.00000 0 -11820425.447 -1801735.857 22532214.679 10 0 60920 9000.00000 0 -12962104.968 -4273254.798 21547411.559 10 0 60920 9900.00000 0 -14217700.045 -6522481.844 20144056.178 10 0 60920 10800.00000 0 -15535892.238 -8503711.100 18349301.660 10 0 60920 11700.00000 0 -16859129.250 -10182430.934 16197923.377 10 0 60920 12600.00000 0 -18126048.882 -11536513.302 13731651.366 10 0 60920 13500.00000 0 -19274085.146 -12556886.133 10998365.267 10 0 60920 14400.00000 0 -20242146.973 -13247660.952 8051166.754 10 0 60920 15300.00000 0 -20973256.397 -13625710.694 4947347.186 10 0 60920 16200.00000 0 -21417034.352 -13719716.003 1747270.524 10 0 60920 17100.00000 0 -21531928.250 -13568720.818 -1486806.419 10 0 60920 18000.00000 0 -21287086.190 -13220259.064 -4691952.686 10 0 60920 18900.00000 0 -20663797.486 -12728132.615 -7805796.260 10 0 60920 19800.00000 0 -19656437.582 -12149935.654 -10767746.447 10 0 60920 20700.00000 0 -18272876.525 -11544431.376 -13520180.684 10 0 60920 21600.00000 0 -16534333.020 -10968893.200 -16009571.779 10 0 60920 22500.00000 0 -14474679.690 -10476524.018 -18187532.950 10 0 60920 23400.00000 0 -12139228.460 -10114063.392 -20011759.927 10 0 60920 24300.00000 0 -9583046.883 -9919684.348 -21446851.776 10 0 60920 25200.00000 0 -6868875.830 -9921268.799 -22464994.783 10 0 60920 26100.00000 0 -4064735.555 -10135134.280 -23046496.619 10 0 60920 27000.00000 0 -1241319.830 -10565265.407 -23180161.190 10 0 60920 27900.00000 0 1530713.645 -11203082.017 -22863497.680 10 0 60920 28800.00000 0 4183444.324 -12027753.294 -22102760.536 10 0 60920 29700.00000 0 6654269.937 -13007044.253 -20912820.300 10 0 60920 30600.00000 0 8888261.426 -14098658.702 -19316868.333 10 0 60920 31500.00000 0 10840195.069 -15252022.045 -17345961.493 10 0 60920 32400.00000 0 12476178.751 -16410428.968 -15038415.763 10 0 60920 33300.00000 0 13774806.303 -17513465.865 -12439060.572 10 0 60920 34200.00000 0 14727793.389 -18499606.324 -9598368.197 10 0 60920 35100.00000 0 15340070.072 -19308870.793 -6571474.941 10 0 60920 36000.00000 0 15629327.752 -19885438.786 -3417112.878 10 0 60920 36900.00000 0 15625040.851 -20180103.928 -196472.768 10 0 60920 37800.00000 0 15367005.509 -20152468.621 3027979.972 10 0 60920 38700.00000 0 14903457.676 -19772786.016 6193713.396 10 0 60920 39600.00000 0 14288850.442 -19023371.603 9239337.886 10 0 60920 40500.00000 0 13581384.643 -17899524.756 12105792.479 10 0 60920 41400.00000 0 12840396.922 -16409920.966 14737485.857 10 0 60920 42300.00000 0 12123715.291 -14576457.543 17083370.147 10 0 60920 43200.00000 0 11485093.431 -12433558.307 19097927.093 10 0 60920 44100.00000 0 10971831.546 -10026965.170 20742047.931 10 0 60920 45000.00000 0 10622683.734 -7412065.785 21983790.308 10 0 60920 45900.00000 0 10466139.787 -4651825.592 22798998.028 10 0 60920 46800.00000 0 10519153.758 -1814408.897 23171771.851 10 0 60920 47700.00000 0 10786373.033 1029413.485 23094782.324 10 0 60920 48600.00000 0 11259900.809 3808963.612 22569418.469 10 0 60920 49500.00000 0 11919602.765 6456351.884 21605769.017 10 0 60920 50400.00000 0 12733945.942 8909057.548 20222435.950 10 0 60920 51300.00000 0 13661335.586 11112287.752 18446183.124 10 0 60920 52200.00000 0 14651894.746 13021017.508 16311425.826 10 0 60920 53100.00000 0 15649612.553 14601625.916 13859570.246 10 0 60920 54000.00000 0 16594771.267 15833060.548 11138214.793 10 0 60920 54900.00000 0 17426550.062 16707481.508 8200228.125 10 0 60920 55800.00000 0 18085695.485 17230358.336 5102721.451 10 0 60920 56700.00000 0 18517145.357 17420015.993 1905935.091 10 0 60920 57600.00000 0 18672494.369 17306649.522 -1327938.732 10 0 60920 58500.00000 0 18512196.042 16930849.546 -4535973.265 10 0 60920 59400.00000 0 18007406.771 16341701.721 -7655740.150 10 0 60920 60300.00000 0 17141392.713 15594541.441 -10626532.911 10 0 60920 61200.00000 0 15910438.971 14748459.810 -13390556.071 10 0 60920 62100.00000 0 14324221.676 13863667.460 -15894055.849 10 0 60920 63000.00000 0 12405626.483 12998828.617 -18088369.758 10 0 60920 63900.00000 0 10190020.558 12208478.899 -19930874.230 10 0 60920 64800.00000 0 7724008.210 11540636.385 -21385811.818 10 0 60920 65700.00000 0 5063722.035 11034706.948 -22424982.132 10 0 60920 66600.00000 0 2272720.854 10719772.024 -23028283.622 10 0 60920 67500.00000 0 -580418.059 10613330.534 -23184096.417 10 0 60920 68400.00000 0 -3424712.455 10720547.242 -22889499.581 10 0 60920 69300.00000 0 -6189486.010 11034038.436 -22150319.394 10 0 60920 70200.00000 0 -8807064.593 11534203.129 -20981008.425 10 0 60920 71100.00000 0 -11215346.782 12190085.122 -19404358.267 10 0 60920 72000.00000 0 -13360142.866 12960729.092 -17451051.898 10 0 60920 72900.00000 0 -15197186.334 13796973.229 -15159064.507 10 0 60920 73800.00000 0 -16693735.606 14643602.778 -12572924.381 10 0 60920 74700.00000 0 -17829700.675 15441773.747 -9742848.125 10 0 60920 75600.00000 0 -18598249.193 16131604.760 -6723766.782 10 0 60920 76500.00000 0 -19005868.095 16654828.014 -3574261.550 10 0 60920 77400.00000 0 -19071879.529 16957387.704 -355429.607 10 0 60920 78300.00000 0 -18827432.548 16991876.540 2870298.143 10 0 60920 79200.00000 0 -18314013.875 16719707.631 6040364.547 10 0 60920 80100.00000 0 -17581541.053 16112930.092 9093295.599 10 0 60920 81000.00000 0 -16686118.635 15155611.615 11969888.438 10 0 60920 81900.00000 0 -15687552.066 13844729.282 14614355.121 10 0 60920 82800.00000 0 -14646723.862 12190530.463 16975400.241 10 0 60920 83700.00000 0 -13622942.285 10216347.626 19007211.900 10 0 60920 84600.00000 0 -12671373.715 7957873.585 20670347.234 10 0 60920 85500.00000 0 -11840666.294 5461926.098 21932495.767 10 0 60921 0.00000 0 -11170864.390 2784752.050 22769106.153 10 0 60921 900.00000 0 -10691700.896 -10061.193 23163864.810 10 0 60921 1800.00000 0 -10421339.820 -2853978.329 23109016.249 10 0 60921 2700.00000 0 -10365620.872 -5676119.348 22605520.256 10 0 60921 3600.00000 0 -10517839.003 -8405963.134 21663041.288 10 0 60921 4500.00000 0 -10859068.265 -10976041.569 20299770.180 10 0 60921 5400.00000 0 -11359017.088 -13324512.809 18542080.734 10 0 60921 6300.00000 0 -11977379.686 -15397507.294 16424026.866 10 0 60921 7200.00000 0 -12665627.311 -17151149.064 13986689.158 10 0 60921 8100.00000 0 -13369164.369 -18553168.238 11277382.609 10 0 60921 9000.00000 0 -14029758.639 -19584037.288 8348740.303 10 0 60921 9900.00000 0 -14588142.862 -20237583.519 5257690.446 10 0 60921 10800.00000 0 -14986677.316 -20521052.116 2064346.626 10 0 60921 11700.00000 0 -15171959.961 -20454617.330 -1169166.807 10 0 60921 12600.00000 0 -15097272.657 -20070362.784 -4379930.713 10 0 60921 13500.00000 0 -14724758.702 -19410774.505 -7505463.904 10 0 60921 14400.00000 0 -14027238.250 -18526811.121 -10484947.659 10 0 60921 15300.00000 0 -12989583.526 -17475633.651 -13260417.090 10 0 60921 16200.00000 0 -11609594.614 -16318091.828 -15777895.205 10 0 60921 17100.00000 0 -9898337.821 -15116074.033 -17988446.962 10 0 60921 18000.00000 0 -7879931.604 -13929833.540 -19849132.298 10 0 60921 18900.00000 0 -5590788.420 -12815404.384 -21323839.594 10 0 60921 19800.00000 0 -3078343.845 -11822215.961 -22383983.583 10 0 60921 20700.00000 0 -399325.807 -10991006.711 -23009054.697 10 0 60921 21600.00000 0 2382364.084 -10352124.131 -23187009.864 10 0 60921 22500.00000 0 5198069.137 -9924281.838 -22914498.016 10 0 60921 23400.00000 0 7976995.843 -9713824.893 -22196916.722 10 0 60921 24300.00000 0 10648923.432 -9714533.169 -21048299.532 10 0 60921 25200.00000 0 13146892.892 -9907969.869 -19491036.815 10 0 60921 26100.00000 0 15409764.505 -10264359.534 -17555435.818 10 0 60921 27000.00000 0 17384538.636 -10743957.738 -15279128.706 10 0 60921 27900.00000 0 19028344.379 -11298854.174 -12706340.033 10 0 60921 28800.00000 0 20310014.465 -11875132.745 -9887027.788 10 0 60921 29700.00000 0 21211182.024 -12415297.398 -6875914.496 10 0 60921 30600.00000 0 21726854.688 -12860861.302 -3731426.972 10 0 60921 31500.00000 0 21865443.188 -13154990.161 -514565.132 10 0 60921 32400.00000 0 21648244.342 -13245088.131 2712278.338 10 0 60921 33300.00000 0 21108401.014 -13085217.238 5886524.710 10 0 60921 34200.00000 0 20289383.419 -12638248.092 8946618.999 10 0 60921 35100.00000 0 19243056.024 -11877650.985 11833219.527 10 0 60921 36000.00000 0 18027411.506 -10788851.443 14490344.397 10 0 60921 36900.00000 0 16704067.014 -9370092.501 16866452.880 10 0 60921 37800.00000 0 15335627.700 -7632766.522 18915441.156 10 0 60921 38700.00000 0 13983027.879 -5601201.412 20597533.507 10 0 60921 39600.00000 0 12702960.940 -3311908.770 21880052.101 10 0 60921 40500.00000 0 11545505.354 -812323.748 22738050.884 10 0 60921 41400.00000 0 10552045.779 1840912.522 23154801.547 10 0 60921 42300.00000 0 9753576.068 4584058.122 23122122.270 10 0 60921 43200.00000 0 9169455.043 7348677.237 22640542.773 10 0 60921 44100.00000 0 8806667.117 10064250.200 21719302.080 10 0 60921 45000.00000 0 8659618.874 12660879.419 20376178.449 10 0 60921 45900.00000 0 8710480.386 15071979.693 18637153.951 10 0 60921 46800.00000 0 8930057.250 17236841.646 16535919.253 10 0 60921 47700.00000 0 9279156.997 19102961.842 14113227.280 10 0 60921 48600.00000 0 9710392.587 20628042.484 11416107.415 10 0 60921 49500.00000 0 10170346.987 21781577.077 8496954.835 10 0 60921 50400.00000 0 10602007.292 22545955.428 5412512.283 10 0 60921 51300.00000 0 10947365.014 22917041.523 2222764.069 10 0 60921 52200.00000 0 11150071.778 22904199.880 -1010235.927 10 0 60921 53100.00000 0 11158036.985 22529769.392 -4223578.760 10 0 60921 54000.00000 0 10925856.201 21828007.158 -7354732.916 10 0 60921 54900.00000 0 10416966.133 20843547.361 -10342769.793 10 0 60921 55800.00000 0 9605433.643 19629440.998 -13129557.251 10 0 60921 56700.00000 0 8477301.872 18244859.996 -15660897.033 10 0 60921 57600.00000 0 7031435.477 16752563.450 -17887583.248 10 0 60921 58500.00000 0 5279828.406 15216233.607 -19766360.837 10 0 60921 59400.00000 0 3247360.469 13697794.380 -21260765.306 10 0 60921 60300.00000 0 971012.311 12254825.536 -22341827.641 10 0 60921 61200.00000 0 -1501428.767 10938181.209 -22988631.196 10 0 60921 62100.00000 0 -4113118.420 9789912.331 -23188710.446 10 0 60921 63000.00000 0 -6800287.660 8841579.369 -22938284.696 10 0 60921 63900.00000 0 -9494669.565 8113025.054 -22242322.994 10 0 60921 64800.00000 0 -12126119.757 7611657.286 -21114439.726 10 0 60921 65700.00000 0 -14625322.276 7332270.836 -19576623.493 10 0 60921 66600.00000 0 -16926468.991 7257413.978 -17658804.889 10 0 60921 67500.00000 0 -18969801.966 7358283.291 -15398271.778 10 0 60921 68400.00000 0 -20703913.907 7596107.951 -12838943.402 10 0 60921 69300.00000 0 -22087711.864 7923964.343 -10030517.315 10 0 60921 70200.00000 0 -23091963.333 8288943.925 -7027505.524 10 0 60921 71100.00000 0 -23700361.256 8634582.536 -3888178.301 10 0 60921 72000.00000 0 -23910064.355 8903448.386 -673436.024 10 0 60921 72900.00000 0 -23731691.101 9039779.367 2554369.253 10 0 60921 73800.00000 0 -23188768.333 8992058.234 5732639.753 10 0 60921 74700.00000 0 -22316658.252 8715416.842 8799742.171 10 0 60921 75600.00000 0 -21161009.239 8173767.755 11696198.767 10 0 60921 76500.00000 0 -19775795.701 7341572.985 14365836.497 10 0 60921 77400.00000 0 -18221029.191 6205174.774 16756872.105 10 0 60921 78300.00000 0 -16560236.615 4763631.628 18822912.549 10 0 60921 79200.00000 0 -14857810.834 3029023.362 20523851.764 10 0 60921 80100.00000 0 -13176344.179 1026211.049 21826646.812 10 0 60921 81000.00000 0 -11574055.900 -1207939.687 22705958.773 10 0 60921 81900.00000 0 -10102420.575 -3625841.336 23144646.275 10 0 60921 82800.00000 0 -8804096.133 -6170921.401 23134102.178 10 0 60921 83700.00000 0 -7711237.650 -8779742.983 22674426.797 10 0 60921 84600.00000 0 -6844267.077 -11384422.432 21774433.959 10 0 60921 85500.00000 0 -6211150.214 -13915244.878 20451489.141 10 0 60922 0.00000 0 -5807211.128 -16303369.729 18731182.225 10 0 60922 900.00000 0 -5615491.636 -18483515.528 16646839.270 10 0 60922 1800.00000 0 -5607641.292 -20396509.531 14238884.239 10 0 60922 2700.00000 0 -5745299.739 -21991599.976 11554059.097 10 0 60922 3600.00000 0 -5981913.674 -23228431.021 8644518.983 10 0 60922 4500.00000 0 -6264911.222 -24078598.610 5566818.784 10 0 60922 5400.00000 0 -6538141.386 -24526721.405 2380810.909 10 0 60922 6300.00000 0 -6744474.624 -24570981.445 -851524.048 10 0 60922 7200.00000 0 -6828453.423 -24223111.540 -4067290.316 10 0 60922 8100.00000 0 -6738879.423 -23507829.927 -7203909.160 10 0 60922 9000.00000 0 -6431226.156 -22461746.232 -10200345.318 10 0 60922 9900.00000 0 -5869773.869 -21131785.317 -12998302.662 10 0 60922 10800.00000 0 -5029374.767 -19573196.117 -15543364.908 10 0 60922 11700.00000 0 -3896772.869 -17847230.067 -17786058.441 10 0 60922 12600.00000 0 -2471421.714 -16018587.656 -19682816.089 10 0 60922 13500.00000 0 -765764.643 -14152741.077 -21196823.040 10 0 60922 14400.00000 0 1195034.877 -12313245.858 -22298728.653 10 0 60922 15300.00000 0 3373902.041 -10559154.328 -22967210.836 10 0 60922 16200.00000 0 5723165.217 -8942639.073 -23189382.733 10 0 60922 17100.00000 0 8186321.619 -7506925.149 -22961034.622 10 0 60922 18000.00000 0 10700180.810 -6284616.619 -22286707.160 10 0 60922 18900.00000 0 13197297.126 -5296486.049 -21179595.249 10 0 60922 19800.00000 0 15608590.206 -4550776.092 -19661284.982 10 0 60922 20700.00000 0 17866045.079 -4043040.767 -17761329.152 10 0 60922 21600.00000 0 19905380.056 -3756531.466 -15516669.753 10 0 60922 22500.00000 0 21668572.048 -3663109.957 -12970918.710 10 0 60922 23400.00000 0 23106134.818 -3724648.762 -10173510.697 10 0 60922 24300.00000 0 24179055.945 -3894858.886 -7178744.327 10 0 60922 25200.00000 0 24860312.426 -4121467.158 -4044730.085 10 0 60922 26100.00000 0 25135902.289 -4348650.772 -832265.270 10 0 60922 27000.00000 0 25005349.781 -4519625.960 2396342.393 10 0 60922 27900.00000 0 24481663.534 -4579281.263 5578479.823 10 0 60922 28800.00000 0 23590749.924 -4476744.044 8652439.024 10 0 60922 29700.00000 0 22370306.498 -4167771.707 11558609.608 10 0 60922 30600.00000 0 20868241.967 -3616866.461 14240630.470 10 0 60922 31500.00000 0 19140688.898 -2799024.025 16646478.539 10 0 60922 32400.00000 0 17249692.083 -1701042.027 18729473.835 10 0 60922 33300.00000 0 15260668.900 -322332.137 20449181.805 10 0 60922 34200.00000 0 13239747.331 1324799.315 21772195.814 10 0 60922 35100.00000 0 11251092.226 3215415.424 22672785.065 10 0 60922 36000.00000 0 9354330.732 5312748.115 23133395.671 10 0 60922 36900.00000 0 7602183.718 7569501.222 23144995.274 10 0 60922 37800.00000 0 6038401.359 9929604.694 22707254.466 10 0 60922 38700.00000 0 4696088.510 12330348.530 21828561.117 10 0 60922 39600.00000 0 3596489.377 14704809.087 20525866.760 10 0 60922 40500.00000 0 2748281.958 16984467.909 18824367.211 10 0 60922 41400.00000 0 2147411.542 19101914.888 16757022.682 10 0 60922 42300.00000 0 1777470.074 20993523.485 14363925.759 10 0 60922 43200.00000 0 1610605.261 22601986.449 11691528.621 10 0 60922 44100.00000 0 1608920.911 23878605.835 8791743.809 10 0 60922 45000.00000 0 1726309.108 24785240.915 5720935.644 10 0 60922 45900.00000 0 1910636.276 25295831.718 2538821.810 10 0 60922 46800.00000 0 2106189.965 25397433.576 -692693.258 10 0 60922 47700.00000 0 2256281.768 25090718.588 -3910729.831 10 0 60922 48600.00000 0 2305894.974 24389922.571 -7052664.745 10 0 60922 49500.00000 0 2204263.473 23322239.561 -10057358.699 10 0 60922 50400.00000 0 1907271.320 21926689.526 -12866353.998 10 0 60922 51300.00000 0 1379570.037 20252507.340 -15425018.493 10 0 60922 52200.00000 0 596322.887 18357121.328 -17683612.733 10 0 60922 53100.00000 0 -455498.635 16303807.039 -19598259.074 10 0 60922 54000.00000 0 -1776321.662 14159115.360 -21131793.773 10 0 60922 54900.00000 0 -3353716.248 11990183.257 -22254485.727 10 0 60922 55800.00000 0 -5162688.380 9862040.021 -22944608.342 10 0 60922 56700.00000 0 -7166509.829 7835021.556 -23188854.123 10 0 60922 57600.00000 0 -9318050.449 5962400.227 -22982584.753 10 0 60922 58500.00000 0 -11561557.526 4288328.397 -22329912.600 10 0 60922 59400.00000 0 -13834808.216 2846180.228 -21243612.836 10 0 60922 60300.00000 0 -16071545.684 1657359.440 -19744868.421 10 0 60922 61200.00000 0 -18204097.771 730621.148 -17862853.342 10 0 60922 62100.00000 0 -20166069.539 61934.303 -15634162.390 10 0 60922 63000.00000 0 -21894997.991 -365111.248 -13102098.539 10 0 60922 63900.00000 0 -23334858.751 -578371.790 -10315831.726 10 0 60922 64800.00000 0 -24438320.695 -615731.452 -7329445.127 10 0 60922 65700.00000 0 -25168654.886 -523259.409 -4200887.249 10 0 60922 66600.00000 0 -25501218.505 -353021.088 -990849.996 10 0 60922 67500.00000 0 -25424452.180 -160636.285 2238405.693 10 0 60922 68400.00000 0 -24940349.283 -2687.658 5424254.014 10 0 60922 69300.00000 0 -24064377.827 65910.713 8504914.988 10 0 60922 70200.00000 0 -22824858.335 -5526.570 11420648.377 10 0 60922 71100.00000 0 -21261823.704 -261075.725 14114907.861 10 0 60922 72000.00000 0 -19425408.621 -736103.574 16535433.352 10 0 60922 72900.00000 0 -17373835.528 -1455536.564 18635260.615 10 0 60922 73800.00000 0 -15171080.814 -2432572.511 20373629.056 10 0 60922 74700.00000 0 -12884318.066 -3667890.132 21716770.495 10 0 60922 75600.00000 0 -10581244.298 -5149390.722 22638564.024 10 0 60922 76500.00000 0 -8327399.830 -6852484.219 23121044.595 10 0 60922 77400.00000 0 -6183592.699 -8740909.315 23154755.567 10 0 60922 78300.00000 0 -4203534.117 -10768055.054 22738938.305 10 0 60922 79200.00000 0 -2431782.773 -12878730.467 21881554.819 10 0 60922 80100.00000 0 -902083.112 -15011309.973 20599142.408 10 0 60922 81000.00000 0 363833.590 -17100166.406 18916502.330 10 0 60922 81900.00000 0 1356935.667 -19078291.153 16866227.616 10 0 60922 82800.00000 0 2081036.594 -20879992.600 14488078.236 10 0 60922 83700.00000 0 2552393.854 -22443560.326 11828214.877 10 0 60922 84600.00000 0 2798778.338 -23713783.392 8938305.476 10 0 60922 85500.00000 0 2858053.905 -24644216.658 5874521.510 99